Flag for Ireland

Past Weather in Limerick, Ireland — Yesterday and Last 2 Weeks

Now
57 °F

Drizzle. Broken clouds.


Feels Like: 55 °F
Forecast: 62 / 52 °F
Wind: 9 mph from Southeast

Location: Shannon Airport

Current Time: Jul 12, 2020 at 12:09:02 pm

Latest Report: Jul 12, 2020 at 11:00 am


Visibility: 4 mi

Pressure: 30.30 "Hg

Humidity: 94%

Dew Point: 55 °F

Location of LimerickLocation

Past Weather in Limerick — Graph

°F

Limerick Temperature Yesterday

Maximum temperature yesterday: 66 °F (at 4:30 pm)
Minimum temperature yesterday: 48 °F (at 3:30 am)
Average temperature yesterday: 58 °F

High & Low Weather Summary for the Past Weeks

 TemperatureHumidityPressure
High66 °F (Jul 11, 4:30 pm)100% (Jul 1, 12:00 am)30.36 "Hg (Jul 1, 12:00 am)
Low48 °F (Jul 10, 4:00 am)49% (Jul 6, 5:30 pm)29.45 "Hg (Jun 27, 11:00 am)
Average57 °F82%29.91 "Hg
* Reported Jun 27 11:00 am — Jul 12 11:00 am, Limerick. Weather by CustomWeather, © 2020

Note: Actual official high and low records may vary slightly from our data, if they occured in-between our weather recording intervals... More about our weather records

Limerick Weather History for the Previous 24 Hours

Scroll right to see more
 ConditionsComfort  
Time TempWeatherWind HumidityBarometerVisibility
11:00 am
Sun, Jul 12
57 °FDrizzle. Broken clouds.9 mph94%30.30 "Hg4 mi
10:30 am55 °FDrizzle. Partly sunny.8 mph94%30.30 "Hg4 mi
10:00 am59 °FDrizzle. Partly sunny.12 mph77%30.30 "Hg6 mi
9:30 am59 °FPartly sunny.10 mph72%30.30 "HgN/A
9:00 am59 °FPartly sunny.12 mph72%30.30 "HgN/A
8:30 am57 °FBroken clouds.9 mph77%30.30 "HgN/A
8:00 am57 °FPartly sunny.9 mph77%30.30 "HgN/A
7:30 am55 °FPartly sunny.8 mph82%30.30 "HgN/A
7:00 am55 °FPartly sunny.7 mph77%30.30 "HgN/A
6:30 am55 °FPartly sunny.7 mph77%30.30 "HgN/A
6:00 am54 °FPartly sunny.7 mph82%30.30 "HgN/A
5:30 am54 °FPartly sunny.7 mph82%30.30 "HgN/A
5:00 am54 °FPassing clouds.5 mph82%30.30 "HgN/A
4:30 am54 °FPassing clouds.6 mph82%30.30 "HgN/A
4:00 am54 °FPassing clouds.8 mph82%30.30 "HgN/A
3:30 am54 °FPassing clouds.9 mph82%30.30 "HgN/A
3:00 am54 °FPassing clouds.8 mph82%30.30 "HgN/A
2:30 am54 °FPassing clouds.7 mph82%30.33 "HgN/A
2:00 am54 °FPassing clouds.5 mph88%30.33 "HgN/A
1:30 am55 °FPartly cloudy.3 mph82%30.33 "HgN/A
1:00 am55 °FPartly cloudy.No wind77%30.33 "HgN/A
12:30 am55 °FPassing clouds.6 mph77%30.33 "HgN/A
12:00 am55 °FPassing clouds.5 mph77%30.33 "HgN/A
11:30 pm
Sat, Jul 11
55 °FPassing clouds.3 mph72%30.36 "HgN/A
11:00 pm55 °FPassing clouds.3 mph72%30.36 "HgN/A
10:30 pm55 °FPassing clouds.6 mph72%30.36 "HgN/A
10:00 pm57 °FPassing clouds.6 mph72%30.33 "HgN/A
9:30 pm59 °FPartly sunny.8 mph63%30.33 "HgN/A
9:00 pm59 °FScattered clouds.8 mph68%30.33 "HgN/A
8:30 pm61 °FScattered clouds.9 mph63%30.33 "HgN/A
8:00 pm64 °FScattered clouds.14 mph60%30.33 "HgN/A
7:30 pm66 °FScattered clouds.6 mph52%30.33 "HgN/A
7:00 pm66 °FScattered clouds.5 mph49%30.33 "HgN/A
6:30 pm66 °FPassing clouds.6 mph49%30.33 "HgN/A
6:00 pm66 °FPassing clouds.6 mph52%30.33 "HgN/A
5:30 pm66 °FPassing clouds.3 mph49%30.33 "HgN/A
5:00 pm66 °FPassing clouds.5 mph49%30.33 "HgN/A
4:30 pm66 °FPassing clouds.3 mph49%30.33 "HgN/A
4:00 pm64 °FPassing clouds.8 mph52%30.36 "HgN/A
3:30 pm64 °FPassing clouds.7 mph52%30.36 "HgN/A
3:00 pm64 °FScattered clouds.3 mph52%30.36 "HgN/A
2:30 pm64 °FScattered clouds.6 mph49%30.36 "HgN/A
2:00 pm63 °FScattered clouds.6 mph52%30.36 "HgN/A
1:30 pm63 °FPartly sunny.3 mph52%30.36 "HgN/A
1:00 pm61 °FScattered clouds.5 mph55%30.36 "HgN/A
12:30 pm61 °FScattered clouds.5 mph55%30.36 "HgN/A
12:00 pm61 °FScattered clouds.6 mph59%30.36 "HgN/A
Weather by CustomWeather, © 2020

See weather overview